Tallahassee, FL

4:02 AM EDT on July 24, 2016 (GMT -0400)
Tallahassee Regional

Weather History for KTLH - July, 2013

Change the Weather History Date:

Wednesday, July 24, 2013

  Actual Average Record
Temperature  
Mean Temperature 81 °F 82 °F  
Max Temperature 91 °F 92 °F 98 °F (1952)
Min Temperature 71 °F 72 °F 67 °F (1929)
Degree Days  
Heating Degree Days 0    
Month to date heating degree days 0  
Since 1 June heating degree days 0  
Since 1 July heating degree days 0  
Cooling Degree Days 16    
Month to date cooling degree days 378  
Year to date cooling degree days 1360  
Since 1 June cooling degree days 898  
Growing Degree Days 31 (Base 50)    
Moisture  
Dew Point 71 °F    
Average Humidity 76    
Maximum Humidity 93    
Minimum Humidity 59    
Precipitation  
Precipitation 0.57 in 0.23 in 3.28 in (1980)
Month to date precipitation 11.42 5.47  
Year to date precipitation 41.13 34.86  
Sea Level Pressure  
Sea Level Pressure 29.91 in    
Wind  
Wind Speed 6 mph (West)    
Max Wind Speed 25 mph    
Max Gust Speed 37 mph    
Visibility 9 miles    
Events Rain , Thunderstorm    
T = Trace of Precipitation, MM = Missing Value Source: NWS Daily Summary

Daily Weather History Graph

Daily Weather History Graph

Search for Another Location

Airport or City:

Trip Planner

Search our weather history database for the weather conditions in past years. The results will help you decide how hot, cold, wet, or windy it might be!

Date:

Astronomy

Jul. 24, 2013 Rise Set
Actual Time 6:51 AM EDT 8:36 PM EDT
Civil Twilight 6:24 AM EDT 9:02 PM EDT
Nautical Twilight 5:52 AM EDT 9:34 PM EDT
Astronomical Twilight 5:18 AM EDT 10:08 PM EDT
Moon 9:58 PM EDT 8:56 AM EDT
Length of Visible Light 14h 38m
Length of Day
13h 45m
Waning Gibbous, 95% of the Moon is Illuminated
Jul 24
Waning Gibbous
Jul 29
Last Quarter
Aug 6
New
Aug 14
First Quarter
Aug 20
Full

Hourly Weather History & Observations

Time (EDT) Temp. Heat Index Dew Point Humidity Pressure Visibility Wind Dir Wind Speed Gust Speed Precip Events Conditions
12:53 AM 72.0 °F - 69.1 °F 91% 29.93 in 10.0 mi West 5.8 mph - N/A   Clear
1:53 AM 72.0 °F - 69.1 °F 91% 29.93 in 10.0 mi WNW 5.8 mph - N/A   Clear
2:53 AM 72.0 °F - 68.0 °F 87% 29.92 in 10.0 mi NW 11.5 mph - N/A   Partly Cloudy
3:01 AM 71.6 °F - 68.0 °F 88% 29.93 in 10.0 mi WNW 8.1 mph - N/A   Scattered Clouds
3:53 AM 71.1 °F - 68.0 °F 90% 29.92 in 10.0 mi NW 9.2 mph - N/A   Scattered Clouds
4:53 AM 71.1 °F - 68.0 °F 90% 29.90 in 10.0 mi Calm Calm - N/A   Mostly Cloudy
5:53 AM 71.1 °F - 68.0 °F 90% 29.89 in 10.0 mi Calm Calm - N/A   Mostly Cloudy
6:53 AM 72.0 °F - 68.0 °F 87% 29.91 in 10.0 mi NNW 3.5 mph - N/A   Overcast
7:53 AM 72.0 °F - 69.1 °F 91% 29.92 in 1.5 mi Variable 4.6 mph - 0.05 in Rain Heavy Rain
8:01 AM 73.4 °F - 69.8 °F 88% 29.92 in 6.0 mi Variable 4.6 mph - 0.07 in Rain Light Rain
8:32 AM 73.4 °F - 69.8 °F 88% 29.92 in 10.0 mi SW 3.5 mph - 0.08 in   Overcast
8:53 AM 75.0 °F - 71.1 °F 87% 29.92 in 10.0 mi Calm Calm - 0.08 in   Overcast
9:00 AM 75.2 °F - 71.6 °F 89% 29.92 in 10.0 mi West 3.5 mph - N/A   Overcast
9:53 AM 80.1 °F 85.4 °F 75.9 °F 87% 29.93 in 10.0 mi West 11.5 mph - N/A   Overcast
10:08 AM 80.6 °F 86.2 °F 75.2 °F 84% 29.93 in 10.0 mi West 10.4 mph - N/A   Overcast
10:53 AM 84.9 °F 94.1 °F 75.9 °F 74% 29.93 in 10.0 mi West 10.4 mph - N/A   Mostly Cloudy
11:00 AM 84.2 °F 92.3 °F 75.2 °F 74% 29.93 in 10.0 mi West 11.5 mph - N/A   Mostly Cloudy
11:33 AM 87.8 °F 97.6 °F 75.2 °F 66% 29.93 in 10.0 mi WNW 13.8 mph 19.6 mph N/A   Scattered Clouds
11:53 AM 88.0 °F 97.5 °F 75.0 °F 65% 29.93 in 10.0 mi West 10.4 mph 23.0 mph N/A   Mostly Cloudy
12:33 PM 89.6 °F 98.2 °F 73.4 °F 59% 29.91 in 10.0 mi Variable 6.9 mph - N/A   Scattered Clouds
12:53 PM 88.0 °F 95.6 °F 73.0 °F 61% 29.91 in 10.0 mi West 10.4 mph - N/A   Mostly Cloudy
1:53 PM 90.0 °F 97.9 °F 73.0 °F 57% 29.89 in 10.0 mi Variable 6.9 mph - N/A   Mostly Cloudy
2:19 PM 82.4 °F 86.3 °F 69.8 °F 66% 29.90 in 10.0 mi SW 16.1 mph 28.8 mph N/A   Mostly Cloudy
2:53 PM 82.9 °F 88.0 °F 72.0 °F 69% 29.89 in 10.0 mi SW 21.9 mph 28.8 mph N/A   Mostly Cloudy
3:53 PM 79.0 °F - 72.0 °F 79% 29.89 in 10.0 mi West 10.4 mph 26.5 mph 0.04 in   Mostly Cloudy
4:13 PM 78.8 °F - 69.8 °F 74% 29.90 in 10.0 mi NNW 5.8 mph 16.1 mph N/A Thunderstorm Thunderstorm
4:53 PM 78.1 °F - 72.0 °F 81% 29.88 in 10.0 mi SSW 6.9 mph - 0.00 in Rain , Thunderstorm Light Thunderstorms and Rain
5:10 PM 78.8 °F - 73.4 °F 83% 29.89 in 10.0 mi SSW 8.1 mph - 0.00 in   Mostly Cloudy
5:53 PM 80.1 °F 84.2 °F 73.0 °F 79% 29.88 in 10.0 mi WSW 8.1 mph - 0.00 in   Scattered Clouds
6:53 PM 80.1 °F 83.6 °F 71.1 °F 74% 29.90 in 10.0 mi North 8.1 mph - N/A   Overcast
7:08 PM 77.0 °F - 69.8 °F 78% 29.91 in 2.0 mi North 10.4 mph 19.6 mph 0.04 in Rain , Thunderstorm Heavy Thunderstorms and Rain
7:20 PM 75.2 °F - 71.6 °F 89% 29.90 in 6.0 mi NNE 4.6 mph - 0.17 in Rain , Thunderstorm Thunderstorms and Rain
7:53 PM 75.9 °F - 71.1 °F 85% 29.90 in 10.0 mi Calm Calm - 0.17 in Thunderstorm Thunderstorm
8:18 PM 73.4 °F - 71.6 °F 94% 29.92 in 2.0 mi WSW 9.2 mph - 0.08 in Rain , Thunderstorm Heavy Thunderstorms and Rain
8:46 PM 73.4 °F - 69.8 °F 88% 29.91 in 6.0 mi Calm Calm - 0.23 in Rain , Thunderstorm Light Thunderstorms and Rain
8:53 PM 73.9 °F - 70.0 °F 87% 29.90 in 10.0 mi Calm Calm - 0.23 in Thunderstorm Thunderstorm
9:22 PM 73.4 °F - 71.6 °F 94% 29.89 in 10.0 mi SW 5.8 mph - N/A   Mostly Cloudy
9:53 PM 73.9 °F - 71.1 °F 91% 29.88 in 10.0 mi SW 11.5 mph - N/A   Mostly Cloudy
10:53 PM 73.0 °F - 71.1 °F 93% 29.89 in 10.0 mi SW 8.1 mph - N/A   Scattered Clouds
11:12 PM 73.4 °F - 71.6 °F 94% 29.89 in 10.0 mi Calm Calm - N/A   Mostly Cloudy
11:53 PM 73.0 °F - 71.1 °F 93% 29.89 in 10.0 mi WSW 5.8 mph - N/A   Overcast